Presure
191 164 187 164 144 155 203 221 200 118 210 237 206 162 209 216 260 321 286 272 182 180 261 235 286 265 253 231 152 141 153 128 129 193 136 123 154 154 134 146 122 152 123 136 133
193 183 187 162 172 193 196 111 183 184 155 213 238 187 199 245 254 191 340 332 135 145 127 264 131 190 158 243 158 130 151 146 136 127 128 131 120 138 127 117 126 212 145 135 122
191 200 174 191 187 190 181 198 221 215 211 215 205 212 263 303 354 312 310 308 333 307 261 247 141 267 149 254 132 144 151 137 137 144 136 136 138 156 130 134 139 126 140 128 124
187 195 189 195 166 177 171 204 199 192 218 220 228 238 262 361 334 320 311 316 310 298 143 267 146 140 143 134 149 115 143 136 129 135 130 123 128 142 141 105 119 131 148 127 112
187 204 170 172 150 190 201 194 204 202 212 221 218 206 247 346 293 338 328 282 288 252 267 258 227 266 180 122 115 149 143 120 111 140 120 120 137 144 109 138 151 125 124 135 125
187 198 191 158 189 190 191 131 210 209 213 213 197 242 240 345 294 298 355 349 341 256 104 187 173 252 115 141 209 156 131 125 119 131 123 140 139 138 116 132 131 130 126 143 121
196 191 185 191 205 196 150 197 216 188 217 187 234 248 235 297 281 270 346 355 321 146 257 265 118 133 232 112 150 130 109 110 127 131 136 142 137 114 125 128 127 130 233 169 207
199 185 178 177 191 166 139 206 218 164 224 230 217 249 261 242 250 308 312 307 298 248 254 126 118 131 114 161 139 128 116 111 112 143 203 124 124 111 131 123 123 227 218 224 229
197 172 174 184 194 174 192 217 213 194 222 217 209 254 270 225 246 237 355 333 322 251 252 146 152 247 243 122 188 125 128 119 181 232 139 127 130 135 134 147 130 227 179 207 134
184 176 183 178 151 178 182 207 217 196 189 185 244 228 221 225 232 239 337 330 259 254 253 248 248 240 239 230 130 123 136 127 220 229 128 136 137 138 129 234 159 138 180 232 233
183 158 182 164 171 192 180 199 212 189 221 231 248 247 247 220 219 227 226 310 242 256 248 248 246 239 237 232 232 131 234 231 227 226 161 227 227 224 217 217 221 225 225 222 227
172 173 186 169 134 194 201 210 216 203 234 202 249 245 219 207 216 223 241 255 240 249 236 239 235 234 236 231 229 227 233 226 222 223 226 224 229 223 216 218 221 224 217 135 202
179 168 173 162 186 205 205 216 200 221 221 196 240 246 229 205 211 221 231 244 243 237 240 229 234 237 231 229 220 223 219 225 234 221 213 215 215 216 225 224 227 222 218 132 155
161 155 170 189 188 166 176 196 201 196 190 232 228 237 254 205 209 212 227 244 242 241 235 235 245 235 229 223 218 223 224 220 216 216 216 214 219 224 223 221 220 137 116 115 212
190 169 192 145 186 173 206 205 202 164 186 225 232 252 248 213 209 212 224 233 240 245 248 243 125 127 227 221 220 216 218 217 215 216 216 219 227 209 210 198 126 115 160 212 211
196 147 159 133 194 220 172 194 197 192 160 221 230 247 229 211 209 210 219 223 235 237 236 243 163 166 229 225 217 217 217 220 221 215 214 213 202 205 210 203 206 218 215 212 219
164 182 189 206 180 200 161 197 203 198 215 234 222 241 217 208 211 180 123 133 223 241 236 229 230 221 220 218 220 227 227 221 138 212 202 201 204 203 206 202 205 196 216 213 213
206 156 194 233 177 196 164 203 181 213 215 232 227 243 213 201 208 199 143 217 210 212 218 225 226 228 210 211 217 224 210 202 131 200 206 206 208 206 211 213 216 207 211 247 236
194 210 180 138 163 222 209 139 184 225 220 192 238 244 213 147 204 210 217 221 212 208 209 212 202 208 207 212 209 207 198 125 203 207 208 204 206 215 216 214 254 236 220 207 203
189 184 147 189 161 210 182 177 199 213 183 184 228 241 209 158 247 222 215 203 217 211 211 211 211 208 203 202 211 208 207 154 124 160 213 215 217 211 234 221 215 209 201 201 206
195 190 195 201 190 171 195 197 204 214 170 186 226 238 144 197 208 229 211 212 200 206 205 215 214 211 211 210 209 208 124 195 152 215 216 214 227 216 215 212 199 200 198 196 187
128 152 173 180 212 133 200 195 221 201 181 181 227 238 127 196 215 209 213 229 223 219 213 213 208 216 216 217 221 225 220 224 218 214 237 230 213 211 206 203 198 199 191 204 196
175 213 195 190 201 193 158 187 220 183 217 177 204 234 244 223 208 206 229 226 227 227 225 225 225 223 223 222 218 212 212 215 214 233 223 215 208 201 199 197 196 206 202 199 197
199 190 192 198 203 202 190 187 225 210 235 176 215 229 252 219 211 214 225 223 220 218 220 218 218 216 209 208 210 207 208 230 228 219 209 203 197 195 204 202 200 199 196 194 192
237 207 156 203 208 199 189 206 220 228 202 177 195 259 243 215 210 213 221 216 217 213 215 208 211 199 214 208 214 242 239 224 217 208 200 198 195 203 190 186 190 195 193 192 195
154 150 192 200 187 227 189 222 220 221 239 182 195 253 235 211 222 215 213 217 207 205 206 214 209 207 222 232 250 232 221 214 206 198 197 198 200 189 192 194 194 190 192 189 188
192 186 165 198 214 176 203 217 223 232 219 205 198 247 235 213 214 211 206 211 203 199 210 198 205 205 261 248 227 220 210 205 199 203 197 193 195 197 197 187 190 193 193 196 200
Wind_Speed
71 64 74 63 51 58 72 68 57 49 60 71 53 39 57 58 61 52 47 41 44 34 29 36 30 39 43 48 70 67 69 47 52 49 63 41 46 68 53 65 36 58 38 56 54
73 78 77 54 76 70 70 41 50 55 40 59 69 48 54 62 30 37 26 27 41 52 49 28 45 37 60 48 70 48 71 74 65 56 55 57 19 57 49 26 43 48 65 56 47
72 69 61 72 74 76 54 67 69 61 62 60 56 52 85 79 23 34 25 25 26 23 28 31 52 41 58 42 50 65 70 64 61 75 58 61 44 64 55 58 58 63 31 37 45
75 72 68 69 56 59 60 69 54 55 63 61 67 67 83 35 30 25 25 22 15 15 29 28 31 47 58 41 63 43 68 52 40 66 48 41 41 64 65 39 47 62 68 38 45
74 65 59 72 60 64 68 58 61 53 57 62 60 51 67 36 52 32 26 19 13 15 19 25 33 33 32 34 33 68 63 28 33 52 34 33 57 56 41 59 43 50 46 56 52
68 64 65 39 72 73 65 37 63 54 55 55 46 66 54 37 47 36 19 13 9 15 39 25 30 33 29 27 42 70 41 33 38 43 47 65 64 54 46 52 52 50 47 63 48
67 64 70 68 64 67 37 61 65 38 58 45 59 68 48 54 44 34 13 8 8 34 19 19 41 37 34 33 56 27 34 35 39 47 64 62 58 40 45 49 48 53 46 51 50
64 68 74 72 71 43 36 62 61 35 59 56 52 64 68 38 35 24 16 10 11 16 15 39 40 31 38 36 49 38 34 37 39 42 37 44 45 41 52 44 48 34 46 50 49
63 66 69 69 67 47 64 65 54 37 52 53 46 65 65 29 31 26 6 7 11 15 16 33 32 27 30 42 35 33 39 39 40 30 58 45 54 55 53 66 58 30 44 38 54
67 67 69 50 45 51 53 56 58 41 35 38 61 35 27 27 27 26 3 9 11 13 17 21 25 26 29 31 38 37 55 48 31 28 45 55 60 60 51 29 47 57 45 30 31
70 29 70 27 42 64 40 56 52 35 56 55 63 59 40 24 24 24 22 12 10 15 18 22 27 29 29 34 33 42 28 26 25 27 53 30 27 21 26 28 26 30 31 30 29
62 62 68 41 27 66 60 56 53 40 67 40 61 49 24 18 25 24 20 8 11 17 19 24 28 31 33 31 29 27 25 24 24 21 19 22 23 28 31 30 30 28 30 37 31
72 48 49 30 66 61 60 57 45 57 45 36 50 51 30 15 23 26 21 13 15 15 18 20 21 25 28 31 28 26 22 23 22 23 26 27 27 27 29 27 28 29 30 37 37
40 53 37 69 69 45 34 50 37 35 30 64 37 43 41 13 18 24 22 14 13 18 22 22 24 30 33 28 25 24 24 19 20 25 22 24 25 26 19 21 21 36 41 41 32
76 53 78 33 59 35 50 52 42 26 27 50 50 58 35 15 15 19 22 18 15 15 19 21 25 26 28 25 20 20 19 17 22 22 25 26 18 20 19 19 41 37 40 30 33
80 36 46 32 69 58 33 45 43 36 32 45 44 52 24 13 14 17 20 17 17 16 15 19 26 27 25 23 22 21 20 23 27 23 26 18 17 24 19 23 30 33 32 28 32
63 73 58 71 53 60 29 45 42 39 44 57 31 45 21 13 15 22 25 34 16 17 19 18 22 20 19 23 23 25 22 25 26 22 21 23 23 21 21 30 32 36 25 28 30
79 47 80 65 41 48 34 47 41 46 44 54 36 45 21 17 14 13 33 19 16 15 15 19 20 21 20 20 24 21 23 20 25 22 24 25 25 24 28 27 26 34 29 27 26
78 67 65 34 33 60 55 31 45 54 44 30 42 46 23 24 19 18 19 21 20 19 19 21 21 21 20 20 21 23 21 25 21 22 25 26 29 26 25 27 25 30 23 27 30
84 70 49 67 39 61 37 42 52 44 37 34 33 42 24 20 21 21 20 20 23 24 26 25 26 21 25 24 24 25 26 26 30 29 27 28 27 26 22 22 23 24 29 31 32
86 75 76 58 45 44 57 59 51 48 35 35 32 41 24 16 25 22 22 24 27 28 28 26 27 28 28 27 27 28 30 28 30 29 28 29 24 24 24 24 28 28 31 35 42
46 58 73 47 67 37 56 63 55 46 40 38 33 45 26 19 28 26 24 25 27 29 31 30 31 31 27 30 29 28 29 27 29 28 23 21 25 24 24 27 29 31 38 34 42
70 89 86 61 76 68 40 57 55 45 49 40 41 41 39 32 32 30 25 26 25 26 29 30 29 29 29 28 27 27 28 28 28 24 21 24 21 23 27 31 35 32 35 38 41
93 73 66 77 66 58 66 58 58 52 56 41 36 39 39 36 35 30 26 24 25 27 28 31 30 30 30 27 32 33 31 26 26 25 24 23 24 30 28 31 34 37 40 41 45
103 99 55 85 73 71 69 63 59 60 49 44 42 45 40 38 37 32 27 25 27 28 29 30 30 29 32 33 31 26 28 27 29 24 30 25 29 26 32 41 41 42 42 50 48
30 38 74 86 63 74 61 67 62 58 63 49 45 42 42 39 38 32 28 29 28 28 29 33 33 33 33 29 27 28 29 30 26 29 32 29 31 33 35 39 40 45 46 49 56
63 52 32 79 78 36 68 66 63 64 52 44 45 44 44 40 42 35 30 31 31 28 32 30 33 33 28 29 30 32 29 27 32 31 29 35 38 37 35 40 49 46 48 52 56
Wind_Direction
296 289 299 293 291 300 313 321 315 289 329 337 312 303 309 315 327 307 299 291 266 262 246 246 233 217 225 234 227 241 229 252 258 230 248 269 262 242 278 267 274 258 268 265 267
293 293 297 289 305 309 309 273 297 307 313 326 335 301 307 326 304 284 293 286 255 245 260 233 257 234 236 223 226 240 235 238 241 259 260 264 254 264 266 281 276 248 260 255 275
293 296 294 297 300 307 311 318 323 326 329 324 318 316 337 337 338 324 308 297 291 258 251 235 254 207 236 224 229 241 236 245 252 240 262 258 267 244 272 275 260 274 280 281 282
292 292 294 296 301 302 307 314 316 311 328 331 333 335 341 325 326 317 308 299 276 252 244 215 243 254 247 257 241 240 241 256 245 254 261 259 267 270 267 264 269 283 271 278 265
291 292 286 298 294 301 307 316 318 319 326 332 325 328 335 322 328 318 312 292 275 255 209 209 228 198 230 239 236 234 243 250 248 253 258 258 266 264 259 267 254 276 276 271 278
291 289 290 296 296 302 306 269 319 323 330 326 321 337 331 323 327 325 310 297 258 236 249 221 222 194 240 250 227 236 236 253 252 261 256 265 271 277 260 269 273 278 273 275 269
288 287 289 292 298 298 283 313 318 306 332 304 338 340 329 330 328 329 304 300 225 240 209 189 229 248 209 241 240 251 246 252 262 276 260 266 269 261 272 274 277 281 230 262 260
283 284 290 294 296 290 271 309 317 293 333 334 331 343 337 333 335 324 306 268 212 228 199 227 237 247 237 231 247 242 249 250 259 258 245 264 267 263 277 269 275 246 239 241 246
280 285 287 292 293 296 305 308 315 316 334 326 325 344 340 331 338 336 271 193 198 216 198 232 235 179 189 251 227 254 258 257 248 216 266 267 266 275 274 268 272 251 267 257 272
276 280 284 289 277 304 310 309 313 316 311 303 340 333 323 334 340 337 168 140 226 200 192 177 177 184 187 195 251 254 259 259 221 214 262 268 269 268 268 242 262 267 267 251 252
272 277 283 274 299 297 303 307 310 305 330 336 339 342 333 336 336 334 323 183 267 181 186 180 184 187 191 195 204 257 210 211 216 222 256 229 237 244 252 255 253 251 256 259 258
271 278 279 271 253 292 297 303 306 315 322 310 335 339 322 333 331 329 314 250 249 184 190 186 189 192 197 201 205 210 209 213 221 230 233 243 243 233 245 253 258 260 261 274 267
271 278 277 273 286 291 294 300 303 313 325 295 332 336 326 332 326 321 312 286 247 242 208 207 207 200 202 201 210 213 217 222 218 218 228 232 239 243 247 258 264 266 266 277 275
265 272 269 279 282 280 290 294 301 301 285 326 324 325 329 317 320 313 308 285 263 232 223 219 201 198 204 207 219 217 223 223 232 234 240 247 250 253 256 262 270 272 275 280 271
266 273 274 246 281 284 284 292 298 267 280 324 326 333 321 306 308 307 301 297 264 238 231 213 252 260 210 220 224 234 237 239 239 244 247 250 255 265 267 257 269 279 274 271 275
263 253 259 231 275 276 266 290 289 288 273 319 323 325 306 291 294 294 291 290 277 245 238 220 250 248 220 227 233 236 240 245 239 239 249 255 249 255 261 258 265 268 266 274 275
257 261 264 268 276 271 255 288 289 286 306 315 313 321 295 279 286 274 269 258 278 254 229 224 221 224 223 230 235 240 232 232 259 237 239 252 255 259 260 260 257 277 295 275 274
258 245 263 267 251 270 246 287 263 291 300 310 309 318 280 281 274 272 260 260 256 258 247 230 229 220 229 233 232 222 226 232 272 242 245 247 252 257 250 259 269 270 269 263 263
255 257 261 240 232 268 272 239 264 298 294 269 309 316 274 262 272 267 262 254 251 247 244 240 244 247 250 245 241 240 242 265 244 250 249 254 255 254 257 253 234 244 264 274 278
252 260 250 268 239 269 272 265 277 281 258 263 298 311 262 253 266 257 248 245 243 245 242 238 239 239 238 243 249 248 246 259 269 265 246 243 247 248 240 249 256 261 270 272 272
251 257 257 249 259 264 273 268 277 277 256 260 297 308 259 244 259 250 246 242 247 246 246 244 236 232 235 238 241 242 262 250 266 239 238 239 236 245 244 251 266 265 271 273 279
231 247 254 245 255 238 264 264 274 266 258 257 289 302 255 244 256 248 249 245 237 235 241 242 243 240 238 237 237 238 240 236 238 239 234 234 248 249 261 266 271 270 273 273 277
251 245 250 254 256 259 229 260 269 253 272 253 270 289 281 252 253 247 242 240 239 238 236 236 236 236 234 237 238 241 240 239 242 230 237 247 258 271 272 274 275 278 280 284 291
244 239 242 251 250 250 258 257 271 265 276 251 261 275 268 246 249 244 242 237 235 235 235 237 237 237 242 240 237 241 244 230 229 236 245 262 266 277 279 280 281 287 291 295 299
240 237 244 245 246 246 249 255 263 270 248 250 246 278 251 241 245 239 241 236 238 238 238 243 243 249 244 244 244 228 221 231 236 248 262 266 272 271 281 286 291 290 295 299 297
214 219 234 237 243 250 246 257 258 256 268 248 243 253 242 238 238 237 235 236 235 238 243 243 244 245 241 236 219 223 232 244 257 261 272 277 273 278 281 284 287 292 297 295 294
229 232 215 235 239 231 245 250 253 258 251 229 237 248 236 238 238 235 235 237 239 245 242 254 250 252 225 219 227 234 255 258 265 268 276 279 280 283 283 287 290 295 293 291 297